Simultaneous Nadir Overpasses (SNOs) Predictions

Prediction of SNOs between GOES-17 and TERRA Satellite Orbit:

Table of predicted SNOs for the next 14.0 days since TLE Epoch: 9/3/2022
Index Date Time (GOES-17) GOES-17 Lat,Lon TERRA Lat,Lon Distance(km) Time Diff (sec)
1 09/04/2022 19:26:06 -0.06,-137.31 -0.10,-137.22 11.42 80
2 09/06/2022 19:13:50 -0.05,-137.30 -0.67,-134.25 346.24 80
3 09/07/2022 07:32:34 0.06,-137.30 -0.39,-139.45 244.28 80
4 09/09/2022 07:20:18 0.05,-137.29 0.20,-136.49 90.63 80
5 09/09/2022 19:41:32 -0.06,-137.28 0.87,-141.65 496.87 80
6 09/11/2022 07:08:03 0.05,-137.28 0.84,-133.54 425.40 80
7 09/11/2022 19:29:18 -0.06,-137.27 0.22,-138.70 162.09 80
8 09/13/2022 19:19:42 -0.05,-137.26 -0.37,-135.74 172.41 80
9 09/14/2022 07:41:04 0.05,-137.26 -0.74,-140.93 418.04 80
10 09/16/2022 07:26:08 0.05,-137.23 -0.13,-137.97 84.37 80
